User: anonymous   Login
Location: Stull Observatory
(42.2506°N, 77.7903°W)
Time: 02:47:51
(UTC-04:00)
Language:

Abrixas rocket - Orbit

View from above orbital plane
View from above orbital plane
View from above satellite
View from above satellite

Ground track
Ground track

The orbit data is extracted from the following two-line orbital elements,

1 25723U 99022C   17205.57828777 +.00004978 +00000-0 +80701-4 0  9995
2 25723 048.4174 327.9811 0010858 221.0289 138.9840 15.54509560011999
Epoch (UTC): 24 July 2017 13:52:44
Eccentricity: 0.0010858
inclination: 48.4174°
perigee height: 396 km
apogee height: 411 km
right ascension of ascending node: 327.9811°
argument of perigee: 221.0289°
revolutions per day: 15.54509560
mean anomaly at epoch: 138.9840°
orbit number at epoch: 1199

The dashed part of the orbit path shows where the satellite is in the earth's shadow,  

DLR